カタログに戻る

FENGYUN 1C DEB

運用中SSO
NORAD 30321·DEBRIS·🇨🇳 China

打ち上げ May 10, 1999 から Taiyuan Satellite Launch Center

Loading…

次のパス (今後24時間)

TLE

最新Source: Space-Track

元期: Sep 13, 2026, 22:09 UTC

1 30321U 99025AAJ 26256.92349803  .00000291  00000-0  16341-3 0  9993
2 30321  98.6679 253.7666 0060744 166.2696 256.5939 14.16945602 14415

AllMySatでFENGYUN 1C DEBをリアルタイム追跡

Download on the App Store